NARSSCUBE-1 (44792 NORAD) Tracking and Keplerian Element Data

This shows tracking and keplerian element data for the satellite.

Feedback or suggestion? Click here.




ElementValue
Catalog44792
NameNARSSCUBE-1
Epoch Orbit913
Epoch Day18.16456057
Epoch Year2020
RAAN15.2879
Inclination51.6425
Eccentricity0.0005802
Argument of Perigee162.8196
Mean Anonmoly197.299
Mean Motion15.51261038
Decay Rate4.698E-05
L11 44792U 98067QV 20018.16456057 .00004698 00000-0 86410-4 0 9991
L22 44792 51.6425 15.2879 0005802 162.8196 197.2990 15.51261038 9133

Live tracking and technical data element details for NARSSCUBE-1 (NORAD 44792). NARSSCUBE-1 can be tracked NOW for your location showing map with azimuth and elevation plus other details from your city location.

Track the satellite on the map from your city or location and see movement details for azimuth, elevation, latitude, longitude, range, height, and movement on the map or in text.







IsCatalogInMostPopularTable: catalog: 44792, numindb: 7
Update: records affected: 1



GetName: 44792 NARSSCUBE-1

Hit Count: updated at: Mon, 20 Jan 2020 02:52:40 GMT